Flag for Germany Past Weather in Weiden in der Oberpfalz, Bavaria, Germany — Yesterday and Last 2 Weeks

Now
61 °F

Partly sunny.


Feels Like: 61 °F
Forecast: 51 / 77 °F
Wind: No wind

Location: Grafenwoehr

Current Time: Jun 30, 2016 at 9:02:40 AM

Latest Report: Jun 30, 2016 at 7:58 AM


Visibility: N/A

Pressure: 29.94 "Hg

Humidity: 88%

Dew Point: 57 °F

Location of Weiden in der OberpfalzLocation

Past Weather in Weiden in der Oberpfalz — Graph

°F

Weiden in der Oberpfalz Temperature Yesterday

Maximum temperature yesterday: 77 °F (at 3:58 PM)
Minimum temperature yesterday: 59 °F (at 2:58 AM)
Average temperature yesterday: 67 °F

High & Low Weather Summary for the Past Weeks

 TemperatureHumidityPressure
High91 °F (Jun 24, 4:58 PM)100% (Jun 16, 3:58 AM)30.27 "Hg (Jun 16, 3:58 AM)
Low45 °F (Jun 18, 4:58 AM)28% (Jun 24, 4:58 PM)29.55 "Hg (Jun 15, 6:58 AM)
Average63 °F75%29.99 "Hg
* Reported Jun 15 6:58 AM — Jun 30 6:58 AM, Weiden in der Oberpfalz, Weather by CustomWeather, © 2016

Note: Actual official high and low records may vary slightly from our data, if they occured in-between our weather recording intervals... More about our weather records

Advertising

Weiden in der Oberpfalz Weather History for the Previous 24 Hours

Scroll right to see more
 ConditionsComfort  
Time TempWeatherWind HumidityBarometerVisibility
6:58 AM
Thu, Jun 30
59 °FBroken clouds.No wind94%29.92 "HgN/A
5:58 AM59 °FMostly cloudy.No wind94%29.91 "HgN/A
4:58 AM57 °FPassing clouds.No wind94%29.92 "HgN/A
3:58 AM59 °FMostly cloudy.1 mph88%29.92 "HgN/A
2:58 AM57 °FPassing clouds.No wind94%29.92 "HgN/A
1:58 AM59 °FPartly cloudy.No wind94%29.91 "HgN/A
12:58 AM59 °FPassing clouds.No wind88%29.93 "HgN/A
11:58 PM
Wed, Jun 29
59 °FOvercast.No wind88%29.93 "HgN/A
10:58 PM61 °FPassing clouds.No wind83%29.93 "HgN/A
9:58 PM64 °FSunny.No wind73%29.92 "HgN/A
8:58 PM68 °FSunny.No wind64%29.91 "HgN/A
6:58 PM75 °FSunny.7 mph47%29.89 "HgN/A
5:58 PM75 °FScattered clouds.6 mph47%29.90 "HgN/A
4:58 PM75 °FScattered clouds.5 mph47%29.91 "HgN/A
3:58 PM77 °FSunny.8 mph42%29.92 "HgN/A
2:58 PM73 °FPartly sunny.7 mph50%29.94 "HgN/A
1:58 PM75 °FSunny.14 mph47%29.93 "HgN/A
12:58 PM73 °FBroken clouds.10 mph53%29.93 "HgN/A
11:58 AM72 °FBroken clouds.6 mph61%29.95 "HgN/A
11:01 AM70 °FBroken clouds.5 mph60%29.98 "HgN/A
10:58 AM70 °FPartly sunny.10 mph64%29.95 "HgN/A
9:58 AM68 °FBroken clouds.6 mph69%29.95 "HgN/A
9:04 AM66 °FMostly cloudy.6 mph78%29.98 "HgN/A
Weather by CustomWeather, © 2016

See weather overviewHow to use our weather pages